Location: City of Moscow
(46.7306°N, 116.9989°W)
Time: 05:01:16
(UTC+00:00)

Orbus 7S? - Pass Details

Date: 23 March 2026
Orbit: 354 x 6170 km, 56.9° (Epoch: 30 September)

Event Time Altitude Azimuth Distance (km) Brightness Sun altitude
Rises 11:02:45 0° 178° (S) 10,336 9.5 -26.9°
Reaches altitude 10° 11:10:47 10° 173° (S) 9,581 9.3 -25.8°
Maximum altitude 11:44:06 44° 114° (ESE) 6,193 8.8 -20.8°
Drops below altitude 10° 12:04:25 10° 53° (NE) 6,218 9.8 -17.6°
Sets 12:08:06 0° 48° (NE) 6,659 10.1 -17.0°
